Location: Saluda
(35.2377°N, 82.3468°W)
Time: 03:27:39
(UTC+00:00)

Vanguard 2 Rocket - Pass Details

Date: 12 October 2022
Orbit: 555 x 3321 km, 32.9° (Epoch: 05 December)

Event Time Altitude Azimuth Distance (km) Brightness Sun altitude
Rises 01:12:21 0° 241° (WSW) 7,162 12.2 -27.9°
Reaches altitude 10° 01:17:04 10° 239° (WSW) 6,242 11.7 -28.8°
Maximum altitude 01:37:16 69° 161° (SSE) 3,154 9.3 -32.8°
Enters shadow 01:42:09 53° 105° (ESE) 3,229 9.1 -33.8°
Drops below altitude 10° 01:52:02 10° 83° (E) 4,768 - -35.7°
Sets 01:55:06 0° 80° (E) 5,465 - -36.3°
